Weather History for KTVR - July, 2013

Change the Weather History Date:

Tuesday, July 16, 2013

  Actual Average Record
Temperature  
Mean Temperature 80 °F 82 °F  
Max Temperature 91 °F 92 °F 104 °F (1954)
Min Temperature 69 °F 71 °F 57 °F (1967)
Degree Days  
Heating Degree Days 0 0  
Month to date heating degree days 0 0  
Since 1 June heating degree days 0 0  
Since 1 July heating degree days 0 0  
Cooling Degree Days 15 17  
Month to date cooling degree days 214 258  
Year to date cooling degree days 985 1046  
Since 1 June cooling degree days 655 676  
Growing Degree Days 30 (Base 50)    
Moisture  
Dew Point 72 °F    
Average Humidity 78    
Maximum Humidity 100    
Minimum Humidity 56    
Precipitation  
Precipitation 0.00 in 0.13 in 1.62 in (1961)
Month to date precipitation 0.24 1.91  
Year to date precipitation 40.89 31.20  
Sea Level Pressure  
Sea Level Pressure 30.18 in    
Wind  
Wind Speed 6 mph (East)    
Max Wind Speed 16 mph    
Max Gust Speed 21 mph    
Visibility 9 miles    
Events      
T = Trace of Precipitation, MM = Missing Value Source: NWS Daily Summary

Daily Weather History Graph

Daily Weather History Graph

Search for Another Location

Airport or City:

Trip Planner

Search our weather history database for the weather conditions in past years. The results will help you decide how hot, cold, wet, or windy it might be!

Date:

Astronomy

Jul. 16, 2013 Rise Set
Actual Time 6:08 AM CDT 8:11 PM CDT
Civil Twilight 5:40 AM CDT 8:39 PM CDT
Nautical Twilight 5:07 AM CDT 9:12 PM CDT
Astronomical Twilight 4:31 AM CDT 9:48 PM CDT
Moon 2:01 PM CDT (7/16) 12:28 AM CDT (7/16)
Length of Visible Light 14h 58m
Length of Day
14h 02m
First Quarter, 56% of the Moon is Illuminated
Jul 16
First Quarter
Jul 22
Full
Jul 29
Last Quarter
Aug 6
New
Aug 14
First Quarter

Hourly Weather History & Observations

Time (CDT) Temp. Heat Index Dew Point Humidity Pressure Visibility Wind Dir Wind Speed Gust Speed Precip Events Conditions
12:53 AM 73.0 °F - 71.1 °F 93% 30.14 in 10.0 mi Calm Calm - N/A   Clear
1:53 AM 72.0 °F - 70.0 °F 93% 30.16 in 10.0 mi Calm Calm - N/A   Clear
2:53 AM 72.0 °F - 70.0 °F 93% 30.16 in 10.0 mi Calm Calm - N/A   Clear
3:53 AM 71.1 °F - 69.1 °F 93% 30.16 in 9.0 mi NE 3.5 mph - N/A   Clear
4:53 AM 70.0 °F - 69.1 °F 97% 30.15 in 6.0 mi Calm Calm - N/A   Clear
5:35 AM 69.8 °F - 66.2 °F 88% 30.14 in 1.8 mi Calm Calm - N/A   Clear
5:44 AM 71.6 °F - 69.8 °F 94% 30.14 in 3.0 mi ENE 3.5 mph - N/A   Clear
5:53 AM 72.0 °F - 70.0 °F 93% 30.16 in 10.0 mi Calm Calm - N/A   Clear
6:53 AM 75.0 °F - 72.0 °F 90% 30.17 in 10.0 mi East 3.5 mph - N/A   Clear
7:53 AM 77.0 °F - 72.0 °F 84% 30.19 in 10.0 mi ENE 6.9 mph - N/A   Clear
8:53 AM 79.0 °F - 72.0 °F 79% 30.21 in 10.0 mi East 12.7 mph - N/A   Partly Cloudy
9:53 AM 82.0 °F 87.4 °F 73.0 °F 74% 30.22 in 10.0 mi ESE 9.2 mph - N/A   Partly Cloudy
10:53 AM 82.9 °F 88.8 °F 73.0 °F 72% 30.21 in 10.0 mi East 10.4 mph - N/A   Partly Cloudy
11:53 AM 86.0 °F 93.0 °F 73.0 °F 65% 30.21 in 10.0 mi ESE 10.4 mph - N/A   Partly Cloudy
12:53 PM 89.1 °F 97.0 °F 73.0 °F 59% 30.20 in 10.0 mi East 9.2 mph - N/A   Clear
1:53 PM 90.0 °F 96.9 °F 72.0 °F 55% 30.19 in 10.0 mi East 12.7 mph - N/A   Clear
2:53 PM 89.1 °F 96.0 °F 72.0 °F 57% 30.18 in 10.0 mi ESE 9.2 mph - N/A   Scattered Clouds
3:53 PM 89.1 °F 97.0 °F 73.0 °F 59% 30.17 in 10.0 mi ENE 8.1 mph - N/A   Partly Cloudy
4:53 PM 90.0 °F 96.9 °F 72.0 °F 55% 30.15 in 10.0 mi East 11.5 mph - N/A   Partly Cloudy
5:53 PM 90.0 °F 96.9 °F 72.0 °F 55% 30.15 in 10.0 mi East 6.9 mph - N/A   Clear
6:53 PM 87.1 °F 93.6 °F 72.0 °F 61% 30.14 in 10.0 mi East 6.9 mph - N/A   Clear
7:53 PM 84.0 °F 90.2 °F 73.0 °F 69% 30.18 in 10.0 mi East 3.5 mph - N/A   Mostly Cloudy
8:53 PM 81.0 °F 85.8 °F 73.0 °F 77% 30.19 in 10.0 mi East 4.6 mph - N/A   Clear
9:53 PM 79.0 °F - 73.0 °F 82% 30.21 in 10.0 mi Calm Calm - N/A   Partly Cloudy
10:53 PM 80.1 °F 84.2 °F 73.0 °F 79% 30.23 in 10.0 mi East 5.8 mph - N/A   Scattered Clouds
11:53 PM 78.1 °F - 73.0 °F 84% 30.24 in 10.0 mi ESE 3.5 mph - N/A   Mostly Cloudy